Regional Weather Roundup
Issued by NWS Upton, NY

Current Version | Previous Version | Text Only | Print | Product List | Glossary On
Versions: 1 2 3 4 5 6 7 8 9 10 11 12 13 14 15 16 17 18 19 20 21 22 23 24 25 26 27 28 29 30 31 32 33 34 35 36 37 38 39 40 41 42 43 44 45 46 47 48 49 50
000
ASUS41 KOKX 131805
RWROKX
REGIONAL WEATHER ROUNDUP
NATIONAL WEATHER SERVICE NEW YORK NY
200 PM EDT SUN JUL 13 2014

NOTE: "FAIR" INDICATES FEW OR NO CLOUDS BELOW 12,000 FEET WITH NO
SIGNIFICANT WEATHER AND/OR OBSTRUCTIONS TO VISIBILITY.

NYZ071-072-176-178-NJZ106-104-131900-
NEW YORK CITY METRO AREA


CITY           SKY/WX    TMP DP  RH WIND       PRES   REMARKS
CENTRAL PARK   MOSUNNY   82  68  62 SE6       30.03F
LAGUARDIA APRT PTSUNNY   81  68  64 S22       30.00F
KENNEDY INTL   PTSUNNY   78  69  73 S18G25    30.03F
NEWARK/LIBERTY CLOUDY    83  69  62 S15       29.99F
BRNX BOT. GARD   N/A     79  70  73 S15       30.01F
TETERBORO      PTSUNNY   85  68  56 S12       29.98F
$$

NYZ177-179-078>081-131900-
LONG ISLAND NEW YORK

CITY           SKY/WX    TMP DP  RH WIND       PRES   REMARKS
FARMINGDALE    MOSUNNY   78  69  73 SW17G29   30.04F
ISLIP          PTSUNNY   78  69  73 S15G25    30.02F
SHIRLEY        PTSUNNY   78  69  73 MISG      30.05F
WESTHAMPTON    PTSUNNY   76  69  79 S14G21    30.07F
MONTAUK POINT    N/A     75  69  81 S9G20     30.08F
$$

NYZ052-065-067-131900-
HUDSON VALLEY

CITY           SKY/WX    TMP DP  RH WIND       PRES   REMARKS
WHITE PLAINS   SUNNY     81  69  67 S14G23    30.01F
NEWBURGH       NOT AVBL
MONTGOMERY     CLOUDY    79  70  74 S14       29.98F
POUGHKEEPSIE   CLOUDY    80  69  69 S8        29.97S
ALBANY         CLOUDY    78  68  71 S17G28    29.92F
$$

NJZ001-105-106-008-010-013-015-019>022-104-131900-
NEW JERSEY

CITY           SKY/WX    TMP DP  RH WIND       PRES   REMARKS
NEWARK/LIBERTY CLOUDY    83  69  62 S15       29.99F
TETERBORO      PTSUNNY   85  68  56 S12       29.98F
CALDWELL       CLOUDY    81  71  71 SW6       30.00F
MORRISTOWN     CLOUDY    82  72  69 SW12G30   30.00F
SOMERVILLE     PTSUNNY   84  72  67 S9        29.97F
LINDEN         CLOUDY    85  70  60 CALM      30.01F
SUSSEX         PTSUNNY   84  72  67 VRB6      29.98F
ANDOVER          N/A     81  70  69 S7        30.00F
TRENTON        MOSUNNY   87  71  58 SW13      29.98F HX  93
MILLVILLE      SUNNY     84  72  67 S10G21    30.02F
ATLANTIC CITY  SUNNY     81  72  74 S14G23    30.04F
WRIGHTSTOWN    MOSUNNY   87  70  56 SW16G24   29.98F HX  92
TOMS RIVER     MOSUNNY   86  70  58 S18       30.02F HX  90
BELMAR         SUNNY     82  72  69 SE12      30.01F
$$

PAZ047>061-062-071-131900-
EASTERN PENNSYLVANIA

CITY           SKY/WX    TMP DP  RH WIND       PRES   REMARKS
PHILADELPHIA   PTSUNNY   89  68  49 SW14      29.99F HX  93
ALLENTOWN      PTSUNNY   86  70  58 S12       29.97F HX  90
SCRANTON       CLOUDY    83  67  58 SW9G21    29.96F
$$

CTZ002-004>006-009-010-012-RIZ004-006-007-MAZ004-011-015-131900-
SOUTHERN NEW ENGLAND
 IN CT

CITY           SKY/WX    TMP DP  RH WIND       PRES   REMARKS
BRADLEY INTL   CLOUDY    82  67  60 S17G24    29.98F
HARTFORD       CLOUDY    80  67  64 S13G26    30.00F
DANBURY        PTSUNNY   80  67  64 SW14G21   30.02F
WTRBRY/OXFORD  CLOUDY    77  68  73 S9G17     30.05F
BRIDGEPORT     PTSUNNY   79  70  74 S14       30.02F
MERIDEN        CLOUDY    78  68  71 S18       30.02F
NEW HAVEN      PTSUNNY   81  70  69 S9G16     30.03F
CHESTER        CLOUDY    73  68  83 S12G18    30.06F
GROTON         MOSUNNY   73  67  81 SW9       30.05F
WILLIMANTIC    PTSUNNY   82  66  58 S18G25    30.02F

 IN RI

CITY           SKY/WX    TMP DP  RH WIND       PRES   REMARKS
PROVIDENCE     MOSUNNY   82  59  45 S17G30    30.05F
BLOCK ISLAND   MOSUNNY   75  68  78 SW16G22   30.08F
WESTERLY       PTSUNNY   78  66  66 SW16G23   30.07F

 IN MA

CITY           SKY/WX    TMP DP  RH WIND       PRES   REMARKS
BOSTON         PTSUNNY   84  59  42 S20G28    29.99F
WORCESTER      PTSUNNY   77  64  64 S16       30.03F
WESTFIELD      NOT AVBL
PROVINCETOWN   SUNNY     79  63  57 SW18      30.05F
NANTUCKET      SUNNY     73  66  78 S14       30.10F
$$

ANZ330-335-338-340-345-350-353-355-131900-
COASTAL MARINE OBSERVATIONS


STATION/POSITION TIME  SKY/WX   TEMP    WIND        PRES    VSBY  WAVE
                                AIR SEA DIR/SP/G                  HT/PER
                 (UTC)          (F)     (DEG/KT/KT) (MB)    (MI)  (FT/S)
NY HARB ENTRANCE NOT AVBL
4S FIRE IS       1700               70                N/A           4/ 4
23SW MTP         1800            71 69              1018.1          2/ 4
HUDSON CANYON    1800            73 72  220/ 14/ 16 1018.9          2/ 6
EXECUTION ROCKS  1800            76 67  210/ 14/ 19   N/A
WESTERN LI SOUND 1800            77     180/ 10/ 14   N/A           1/ 2
CENTRAL LI SOUND 1700            73 71  200/ 14/ 17   N/A           2/ 4
EASTERN LI SOUND 1700            71 65  210/ 10/ 14   N/A
ROBBINS REEF     1800            73     160/ 14/ 16   N/A
$$


>>>>>>>>>>>>>>>>>>>>>>>>>>>> KEY <<<<<<<<<<<<<<<<<<<<<<<<<<<
>                                                          <
>     SKY/WX - SKY CONDITION/PRESENT WEATHER               <
>     TMP    - TEMPERATURE IN FAHRENHEIT                   <
>     DP     - DEWPOINT IN FAHRENHEIT                      <
>     RH     - RELATIVE HUMIDITY IN PERCENT                <
>     WIND   - DIRECTION AND SPEED IN MPH                  <
>     PRES   - MEAN SEA LEVEL PRESSURE IN INCHES OF HG     <
>     WCI    - WIND CHILL INDEX                            <
>     VSB    - VISIBILITY IN MILES                         <
>     HX     - HEAT INDEX                                  <
>     TC     - TEMPERATURE IN CELSIUS                      <
>     VRB    - VARIABLE WIND DIRECTION                     <
>                                                          <
>>>>>>>>>>>>>>>>>>>>>>>>>>>> KEY <<<<<<<<<<<<<<<<<<<<<<<<<<<




USA.gov is the U.S. government's official web portal to all federal, state and local government web resources and services.